Temperature
15 14 14 14 14 14 14 14 15 15 15 15 15 15 15 15 16 16 16 16 16 16 17 17 17 17 17 17 17 17 17 17 17 17 17 18 18 18 18 18 18 18 18
14 14 15 14 14 14 14 15 15 15 15 15 15 15 15 15 15 15 16 16 16 16 16 17 17 17 17 17 17 17 17 17 17 17 17 17 17 18 18 18 18 18 18
14 14 14 14 14 14 14 15 15 15 15 15 15 15 15 15 15 15 15 16 16 16 16 16 16 17 17 17 17 17 17 17 17 17 17 17 17 17 17 17 17 17 17
14 14 14 14 14 14 14 14 15 15 15 15 15 15 15 15 15 15 16 16 16 16 16 16 16 16 17 17 17 17 17 17 17 17 17 17 17 17 17 17 17 17 17
14 14 14 14 14 14 14 14 14 15 15 15 15 15 15 15 15 15 16 16 15 15 16 16 16 16 16 17 17 17 17 17 17 17 17 17 17 17 17 17 17 17 17
14 14 14 14 14 14 14 14 14 14 14 15 15 15 15 15 15 15 15 15 15 15 15 15 16 16 16 16 16 17 17 17 17 17 17 17 17 17 17 17 17 17 17
14 14 14 14 14 14 14 14 14 14 14 15 15 15 15 15 15 15 15 15 15 15 15 15 15 16 16 16 16 16 16 17 16 16 17 17 17 17 17 17 17 17 17
14 14 14 14 14 14 14 14 14 14 14 14 15 16 16 16 15 15 15 15 15 15 15 15 15 15 16 16 16 16 16 16 16 16 16 16 16 17 17 17 17 17 17
15 15 14 14 14 14 14 14 14 14 14 14 15 15 16 16 15 15 15 15 15 15 15 15 15 15 15 16 16 16 16 16 16 16 16 16 16 16 17 17 17 17 17
15 15 14 14 14 14 14 14 14 14 14 14 14 14 14 14 15 15 15 15 15 15 15 15 15 15 15 15 16 16 16 16 16 16 16 16 16 16 16 17 17 17 17
15 14 14 14 14 14 14 14 14 14 14 14 14 14 14 14 15 15 15 15 15 15 15 15 15 15 15 15 15 15 16 16 16 16 16 16 16 16 16 16 17 17 17
15 14 14 14 14 14 14 14 14 14 14 14 14 14 14 14 14 14 15 15 15 15 14 14 14 14 14 15 15 15 15 16 16 16 16 16 16 16 16 16 16 16 17
14 14 14 14 14 14 14 14 14 13 13 13 13 13 13 13 13 14 14 15 15 15 14 15 14 14 14 14 15 15 15 15 15 16 16 16 16 16 16 16 16 16 16
14 14 14 14 14 14 14 14 14 13 13 13 13 13 13 13 13 13 13 14 15 15 15 14 14 14 14 14 14 15 14 15 15 15 15 16 16 16 16 16 16 16 16
15 14 14 14 14 14 14 13 13 13 13 13 13 13 13 13 13 13 13 13 14 14 15 14 14 13 13 14 14 14 14 15 15 15 15 15 15 16 16 16 16 16 16
14 14 14 14 14 14 14 13 13 13 13 13 13 13 13 13 13 13 13 13 13 13 14 14 13 13 13 13 14 14 14 14 15 15 15 15 15 15 15 15 16 16 16
14 14 14 14 14 14 13 13 13 13 13 13 13 13 13 13 12 12 12 12 12 13 13 13 13 13 13 13 13 14 14 14 14 14 15 15 15 15 15 15 15 15 15
14 14 14 13 13 13 13 13 13 13 13 13 13 13 12 12 12 12 12 12 12 12 12 12 13 12 12 12 13 13 13 13 14 14 14 14 14 15 15 15 15 15 15
14 14 13 13 13 13 13 13 13 13 12 12 12 12 12 12 12 12 12 12 12 12 12 12 12 12 12 12 12 12 13 13 13 13 14 14 14 14 14 14 15 15 15
14 13 13 13 13 13 13 13 13 12 12 12 12 12 12 12 12 11 11 11 11 11 11 11 11 11 11 11 11 12 12 12 12 13 13 13 13 14 14 14 14 14 14
13 13 13 13 13 13 13 12 12 12 12 12 12 12 12 12 12 11 11 11 11 11 11 11 11 11 11 11 11 11 11 11 12 12 12 12 13 13 13 13 14 14 14
13 13 13 12 12 12 13 13 12 12 11 11 11 11 11 11 11 11 11 11 11 10 10 10 10 11 11 11 10 10 10 10 11 11 11 12 12 12 12 13 13 13 14
13 13 12 12 12 12 12 12 12 12 11 11 11 11 11 10 11 10 10 10 10 10 10 10 10 10 10 10 10 10 10 10 10 10 10 11 11 11 12 12 13 13 13
13 12 12 12 12 12 12 12 12 11 11 11 10 10 10 10 10 10 10 9 9 9 10 9 9 9 9 9 9 9 9 9 10 10 10 10 11 11 11 12 12 12 13
12 12 12 12 11 11 12 11 11 10 10 10 10 10 10 10 10 10 9 9 9 9 9 9 9 9 9 9 9 9 8 8 9 9 10 10 10 10 10 11 11 12 12
12 12 12 11 11 11 11 11 11 10 10 10 9 9 10 10 9 9 9 8 8 9 9 9 9 9 9 9 9 8 8 8 8 8 9 9 9 9 9 10 11 11 11
Wind_Speed
6 5 5 6 6 6 5 5 5 5 5 5 4 4 4 3 3 3 4 6 6 6 6 6 6 5 5 5 6 6 6 6 5 5 4 4 5 6 9 12 12 12 12
6 5 5 5 6 6 6 5 6 4 4 4 5 5 4 4 3 3 3 5 6 6 6 6 6 6 5 5 6 6 5 5 4 5 6 6 6 8 10 11 11 11 11
7 6 6 6 6 7 6 6 6 5 4 4 5 5 5 5 4 4 4 3 4 6 7 7 7 7 6 6 5 5 6 6 5 6 7 7 8 9 10 11 11 10 10
8 6 6 6 7 7 6 5 5 4 4 5 5 5 5 5 5 5 4 4 4 4 7 8 8 8 7 6 5 5 5 7 6 6 6 7 7 9 10 10 10 10 10
8 7 6 6 7 6 6 6 5 5 5 5 5 5 5 5 5 5 6 6 6 5 5 7 7 9 9 9 7 6 7 7 7 6 5 6 7 8 9 9 9 9 10
8 7 6 7 7 6 6 6 6 5 4 4 4 5 5 5 5 6 6 6 6 6 7 6 5 7 9 10 10 8 8 7 7 6 6 6 6 8 8 8 8 8 9
7 7 6 7 7 7 7 7 6 6 6 4 2 3 5 7 7 6 6 6 6 7 6 7 6 5 5 8 10 9 8 7 7 7 5 5 5 6 7 7 7 7 9
7 7 7 6 6 6 7 8 7 5 5 5 4 2 2 4 5 6 6 6 7 6 6 7 7 6 6 5 8 9 8 7 7 6 5 4 4 5 6 6 6 7 8
7 7 8 7 7 7 7 8 7 7 6 6 7 5 3 3 3 4 7 6 7 6 6 7 7 8 7 6 6 8 8 7 6 5 4 3 3 4 5 5 5 7 8
6 7 7 7 7 7 7 7 8 6 6 5 5 6 6 4 2 2 4 6 7 7 7 6 7 8 8 7 8 10 9 7 6 4 3 2 2 2 4 5 6 7 9
6 6 6 7 7 7 7 8 7 8 6 7 6 5 5 4 5 4 4 4 5 6 6 6 6 7 8 7 7 9 9 7 6 5 3 2 1 1 2 4 6 7 9
4 6 5 6 6 6 7 7 7 8 7 7 6 6 5 5 5 4 4 4 4 5 5 5 5 6 7 7 8 10 8 7 6 5 4 3 1 0 1 2 5 7 9
4 5 4 5 5 6 6 6 6 7 7 7 7 6 6 5 5 4 4 4 4 3 4 4 5 6 6 6 6 9 5 5 5 5 4 3 2 1 1 2 3 5 7
4 4 4 4 5 5 5 6 5 6 6 6 7 6 5 5 5 5 5 5 4 3 4 5 4 6 7 7 8 8 5 5 5 4 4 3 3 3 3 3 3 5 6
3 4 4 4 4 5 5 5 5 6 6 6 6 6 5 5 5 4 4 4 5 4 4 5 5 7 8 7 9 8 7 7 6 5 4 4 4 4 4 4 5 6 6
3 3 3 3 4 4 5 5 5 5 6 6 5 6 6 5 5 4 4 4 4 4 4 5 5 6 8 8 8 8 8 6 5 5 5 5 6 6 6 6 6 7 7
3 3 3 3 4 4 4 5 5 5 6 6 6 7 7 7 5 4 4 4 4 4 4 5 5 6 7 8 8 9 8 7 5 4 6 6 7 7 7 7 7 7 8
3 3 4 4 4 4 4 5 5 5 5 6 6 6 6 5 6 6 5 5 4 5 5 6 6 6 8 8 8 8 7 7 7 6 6 7 8 8 9 10 10 10 10
3 3 4 4 4 4 3 3 4 4 4 5 5 6 6 6 6 5 5 5 5 5 5 5 6 6 6 7 8 7 7 7 8 7 7 7 8 9 10 11 12 12 12
3 3 3 4 4 3 3 3 3 3 3 4 4 5 6 6 7 7 5 6 6 6 5 6 6 6 6 7 7 7 8 7 7 8 8 7 7 9 11 12 12 13 13
2 3 3 3 3 3 4 4 3 3 3 3 4 4 5 6 7 7 6 7 7 6 6 6 6 7 7 7 8 8 9 9 8 6 7 7 7 7 8 10 12 13 13
3 3 2 3 3 3 6 5 5 3 3 3 4 4 4 4 4 3 4 6 7 7 8 7 7 8 9 9 8 8 9 9 9 6 8 9 8 8 8 9 8 9 12
3 2 2 2 2 4 4 4 5 4 3 4 4 5 4 4 6 7 5 5 6 5 7 9 10 10 11 10 11 11 11 11 11 10 10 11 10 10 9 10 10 11 13
3 2 1 1 1 3 4 3 5 4 3 3 4 5 5 6 7 9 9 8 8 7 7 8 9 10 11 11 11 12 13 13 12 10 9 11 11 10 9 10 11 13 14
3 2 2 1 1 0 2 3 5 3 3 4 4 5 6 6 7 9 9 9 9 8 7 8 11 13 14 14 12 10 10 10 11 11 9 10 11 11 11 10 10 12 14
3 3 2 2 1 1 2 3 6 3 4 4 4 4 3 5 8 10 9 9 10 10 11 11 10 11 11 10 9 10 10 10 11 11 9 8 11 10 10 9 8 9 10
Wind_Direction
24 24 27 18 16 14 12 5 7 18 14 22 23 25 23 28 27 40 73 70 43 33 31 31 30 28 34 38 30 22 23 18 20 42 64 83 90 99 117 124 128 132 137
26 17 27 25 19 12 9 5 20 13 22 29 32 37 27 31 42 53 56 87 85 57 39 35 30 29 34 37 36 28 32 30 55 68 78 86 93 107 117 119 122 126 134
26 25 24 28 20 13 13 13 21 19 32 40 48 45 47 36 40 51 55 47 77 89 66 47 37 35 38 39 38 37 48 50 71 83 89 89 91 104 116 120 123 127 131
33 31 27 28 22 19 19 19 16 26 38 40 46 44 55 53 46 47 56 60 54 59 81 63 46 40 39 37 36 48 62 60 65 80 94 98 104 107 113 118 122 128 133
33 39 31 24 26 26 25 22 25 19 36 37 51 53 48 49 45 44 50 50 55 54 63 80 72 57 46 40 47 63 75 67 66 71 88 101 110 116 117 121 124 125 133
32 33 36 30 26 31 28 29 32 32 28 25 49 62 57 57 55 44 41 48 49 49 49 49 61 73 61 49 50 66 71 68 68 71 79 92 109 126 129 129 129 133 140
31 33 28 30 24 31 28 28 26 39 36 19 44 79 78 59 51 49 39 38 49 46 46 48 43 44 64 67 53 52 60 64 68 69 75 94 104 122 134 136 139 148 150
32 30 31 33 34 33 33 31 29 26 37 27 11 26 75 78 48 45 42 40 40 43 40 43 45 44 41 45 60 51 49 56 61 65 68 96 124 132 142 147 154 161 161
38 34 34 34 33 35 35 29 28 29 30 35 30 17 25 38 32 48 41 42 40 34 36 36 41 41 42 42 44 54 46 48 50 56 64 83 123 146 152 159 166 168 167
45 39 39 38 39 38 37 34 36 31 27 34 41 34 35 31 10 43 51 41 38 35 33 31 34 39 38 42 45 44 40 43 46 42 44 64 93 160 175 181 180 178 176
50 46 42 42 41 40 39 38 34 31 35 34 33 33 35 31 20 29 38 29 40 38 33 30 33 36 34 34 34 37 32 32 36 33 24 23 32 154 193 198 196 193 190
58 53 46 46 44 41 39 37 37 41 35 34 32 34 30 29 21 21 22 26 31 31 31 35 30 30 26 25 30 27 22 20 21 22 18 11 352 292 249 211 209 210 206
61 52 48 46 44 42 39 34 38 37 40 37 34 29 29 30 22 12 9 15 15 25 28 37 33 26 19 16 19 4 20 18 10 5 1 356 344 305 284 256 235 228 222
59 57 53 52 49 43 43 41 36 38 35 39 40 34 27 26 20 17 7 356 357 17 29 27 23 24 12 8 10 341 6 24 355 339 331 324 307 283 265 264 266 252 243
65 60 65 63 59 50 41 40 39 39 36 34 34 34 27 26 17 14 8 1 351 348 5 15 5 7 0 2 356 348 350 10 346 327 313 300 282 269 259 252 253 255 251
66 63 62 68 66 59 52 43 40 35 41 44 34 32 25 21 17 15 7 3 358 345 342 354 352 351 354 348 358 347 343 335 314 317 312 297 277 268 260 252 247 246 245
74 66 62 58 58 56 59 57 44 40 37 40 37 37 31 19 15 15 9 4 1 348 333 336 345 347 346 345 347 343 336 328 329 332 313 298 281 271 262 255 248 244 242
77 70 72 69 64 57 53 53 46 41 38 36 33 30 26 25 20 13 4 2 1 349 335 332 334 345 343 343 341 335 334 333 325 330 312 293 281 271 263 256 249 245 242
91 81 74 67 62 56 51 42 39 35 38 35 27 20 17 18 14 14 4 0 353 348 337 325 333 338 331 339 335 331 331 330 322 318 301 283 276 271 267 259 249 243 241
100 87 76 70 63 54 42 36 32 30 32 28 21 17 12 10 5 360 356 353 346 340 336 329 327 330 329 335 330 330 327 327 320 318 314 306 290 273 262 256 251 247 243
106 94 84 75 68 54 39 24 28 22 18 17 14 13 20 18 11 359 350 344 340 333 330 326 324 325 326 329 330 325 318 316 312 309 313 307 303 293 279 256 246 245 242
115 103 94 84 73 58 50 20 345 355 354 356 358 354 359 0 356 327 328 325 323 322 325 319 316 316 321 324 323 315 313 311 308 309 305 300 295 290 285 277 268 251 245
132 123 109 94 76 66 56 22 341 328 337 344 343 344 345 348 337 337 322 288 287 280 290 302 306 311 314 319 316 310 306 302 298 301 301 293 289 283 282 279 267 258 251
149 155 149 125 77 55 43 8 321 309 324 332 333 333 330 336 350 339 325 320 317 316 308 298 303 306 309 311 307 301 299 295 291 286 282 286 289 287 287 284 271 258 254
169 179 180 197 227 99 56 348 308 312 313 320 326 331 329 329 359 334 317 315 314 313 301 285 288 289 293 292 292 294 294 294 294 295 289 283 289 291 288 283 273 253 248
184 191 195 225 246 287 62 340 306 298 306 314 318 318 350 334 337 326 315 314 312 316 316 308 297 291 291 292 279 282 291 292 294 294 293 291 291 294 290 282 279 277 265
Height
1553 1551 1549 1547 1546 1544 1543 1541 1540 1539 1538 1537 1536 1536 1535 1535 1535 1535 1535 1534 1534 1534 1533 1533 1533 1533 1532 1531 1530 1529 1528 1527 1526 1525 1524 1523 1522 1518 1516 1519 1524 1530 1534
1554 1552 1551 1548 1547 1545 1544 1542 1541 1539 1539 1538 1537 1536 1535 1535 1536 1535 1535 1535 1534 1534 1534 1534 1533 1533 1532 1531 1530 1529 1528 1527 1526 1526 1525 1525 1523 1522 1522 1525 1529 1533 1536
1555 1553 1552 1550 1548 1547 1545 1543 1542 1541 1540 1539 1538 1537 1536 1536 1536 1536 1536 1536 1536 1535 1535 1534 1534 1533 1532 1531 1530 1529 1528 1527 1527 1527 1527 1527 1526 1525 1527 1530 1533 1535 1538
1556 1554 1553 1552 1550 1548 1546 1544 1543 1542 1541 1540 1539 1539 1538 1537 1537 1537 1537 1537 1537 1536 1536 1535 1534 1533 1532 1531 1527 1526 1527 1528 1528 1529 1529 1529 1529 1529 1531 1533 1536 1537 1540
1558 1557 1554 1553 1552 1550 1548 1546 1544 1543 1542 1541 1541 1540 1539 1539 1538 1538 1538 1538 1537 1537 1537 1536 1535 1534 1533 1530 1527 1525 1528 1530 1530 1531 1531 1532 1532 1533 1534 1536 1538 1539 1541
1559 1558 1557 1555 1553 1551 1549 1548 1546 1544 1543 1543 1543 1542 1541 1540 1540 1539 1539 1539 1539 1538 1538 1537 1537 1535 1534 1532 1530 1529 1531 1532 1533 1533 1534 1534 1535 1536 1537 1539 1540 1541 1542
1561 1559 1558 1557 1554 1553 1551 1550 1548 1547 1545 1544 1545 1544 1544 1543 1542 1541 1541 1540 1540 1539 1539 1538 1538 1537 1536 1534 1533 1533 1534 1535 1535 1536 1536 1536 1537 1538 1539 1540 1541 1541 1543
1562 1561 1560 1558 1557 1555 1553 1551 1549 1549 1548 1546 1546 1546 1545 1546 1544 1543 1542 1542 1541 1541 1540 1540 1539 1538 1537 1537 1536 1536 1536 1537 1537 1537 1538 1538 1539 1540 1541 1541 1542 1542 1543
1564 1562 1561 1560 1558 1557 1555 1553 1552 1550 1550 1549 1547 1547 1547 1546 1546 1546 1544 1544 1543 1542 1542 1541 1540 1540 1539 1538 1538 1538 1538 1538 1538 1539 1540 1540 1541 1541 1542 1543 1543 1543 1544
1565 1564 1563 1562 1560 1559 1557 1556 1554 1553 1552 1551 1550 1548 1549 1548 1548 1547 1547 1546 1544 1544 1543 1542 1542 1541 1540 1540 1539 1539 1539 1539 1540 1540 1540 1541 1541 1542 1543 1544 1544 1545 1546
1567 1565 1564 1563 1562 1561 1559 1558 1556 1555 1554 1553 1552 1551 1550 1550 1550 1549 1548 1548 1546 1545 1544 1543 1543 1542 1541 1541 1540 1540 1540 1540 1540 1540 1541 1541 1542 1542 1543 1544 1545 1546 1547
1568 1567 1566 1565 1564 1563 1561 1560 1558 1557 1556 1555 1554 1553 1553 1552 1551 1550 1549 1549 1548 1547 1546 1545 1544 1543 1542 1541 1541 1540 1540 1540 1540 1540 1540 1541 1542 1542 1543 1544 1545 1545 1547
1570 1568 1567 1566 1565 1564 1563 1561 1560 1559 1558 1556 1556 1555 1554 1553 1552 1552 1551 1550 1549 1548 1547 1546 1545 1544 1543 1542 1541 1540 1540 1539 1539 1540 1540 1540 1540 1541 1542 1543 1543 1544 1545
1570 1569 1568 1567 1566 1565 1564 1563 1562 1561 1560 1559 1557 1556 1555 1554 1554 1553 1552 1551 1550 1549 1548 1548 1546 1545 1543 1542 1541 1540 1539 1539 1538 1538 1539 1539 1539 1540 1540 1541 1541 1542 1543
1570 1569 1569 1568 1567 1566 1565 1564 1563 1562 1561 1560 1559 1558 1557 1556 1554 1554 1553 1552 1552 1550 1549 1548 1547 1545 1543 1542 1540 1540 1539 1538 1537 1537 1537 1537 1537 1538 1538 1538 1539 1539 1541
1570 1570 1570 1569 1568 1566 1565 1564 1564 1562 1562 1560 1559 1558 1557 1557 1555 1554 1553 1552 1552 1551 1550 1549 1547 1545 1543 1542 1540 1538 1537 1536 1535 1535 1535 1535 1535 1535 1535 1535 1536 1537 1537
1570 1570 1569 1569 1568 1567 1566 1565 1564 1563 1562 1562 1561 1559 1558 1556 1556 1555 1553 1553 1552 1551 1549 1548 1547 1545 1542 1541 1539 1537 1536 1535 1534 1533 1532 1532 1532 1532 1532 1532 1533 1533 1534
1570 1570 1569 1569 1568 1567 1566 1566 1564 1563 1563 1562 1561 1560 1558 1557 1555 1555 1553 1552 1551 1550 1549 1547 1546 1544 1541 1539 1537 1535 1534 1533 1532 1530 1529 1529 1528 1528 1528 1529 1529 1529 1530
1570 1569 1569 1568 1568 1567 1566 1565 1565 1564 1563 1562 1561 1560 1559 1557 1556 1554 1553 1552 1550 1549 1547 1546 1544 1542 1540 1538 1535 1534 1533 1530 1529 1528 1526 1525 1525 1524 1524 1524 1525 1525 1526
1569 1569 1568 1568 1567 1566 1566 1565 1564 1564 1563 1562 1560 1559 1558 1557 1555 1554 1552 1551 1549 1548 1546 1545 1543 1541 1539 1536 1534 1532 1530 1528 1526 1525 1523 1522 1521 1520 1519 1519 1519 1520 1520
1568 1568 1568 1567 1566 1565 1565 1564 1564 1563 1562 1561 1560 1559 1557 1555 1554 1552 1551 1549 1548 1547 1545 1543 1541 1540 1538 1535 1533 1530 1528 1525 1523 1522 1520 1519 1517 1516 1515 1514 1514 1514 1515
1567 1567 1566 1566 1565 1565 1564 1563 1562 1562 1561 1560 1559 1558 1556 1554 1552 1550 1549 1547 1546 1545 1543 1542 1540 1538 1536 1533 1530 1528 1526 1523 1520 1520 1517 1514 1513 1511 1510 1510 1509 1509 1509
1565 1565 1565 1565 1564 1564 1563 1562 1561 1560 1560 1559 1558 1556 1554 1553 1551 1549 1547 1545 1544 1542 1540 1539 1537 1535 1533 1531 1528 1525 1522 1520 1517 1515 1513 1509 1508 1506 1505 1504 1503 1503 1502
1564 1564 1564 1563 1563 1562 1561 1560 1559 1559 1558 1557 1555 1554 1553 1551 1549 1547 1545 1543 1542 1540 1537 1536 1534 1531 1529 1526 1523 1521 1518 1515 1512 1511 1509 1506 1504 1502 1500 1498 1497 1496 1496
1562 1562 1562 1561 1561 1560 1559 1558 1557 1557 1556 1555 1553 1552 1550 1548 1546 1544 1542 1540 1538 1536 1534 1531 1529 1526 1523 1521 1518 1516 1513 1511 1508 1506 1505 1502 1499 1496 1494 1492 1491 1489 1489
1559 1560 1559 1559 1559 1558 1557 1556 1555 1555 1554 1553 1551 1549 1547 1545 1543 1541 1539 1537 1535 1532 1530 1527 1524 1522 1519 1517 1514 1512 1510 1507 1504 1501 1500 1497 1494 1491 1487 1486 1485 1483 1482